�������l�o���
Date,Time,MP-1(��Sv/h),MP-2(��Sv/h),MP-3(��Sv/h),MP-4(��Sv/h),MP-5(��Sv/h),MP-6(��Sv/h),MP-7(��Sv/h),MP-8(��Sv/h),����,����(m/s),���J
2017/06/18,00:00,0.989,1.579,1.042,1.872,1.288,0.527,0.967,0.895,-,CALM,��
2017/06/18,00:10,0.988,1.578,1.042,1.871,1.288,0.527,0.967,0.895,-,CALM,��
2017/06/18,00:20,0.990,1.577,1.043,1.873,1.288,0.527,0.966,0.897,-,CALM,��
2017/06/18,00:30,0.989,1.577,1.043,1.872,1.287,0.527,0.968,0.895,-,CALM,��
2017/06/18,00:40,0.990,1.577,1.043,1.874,1.287,0.526,0.968,0.896,���쐼,0.6,��
2017/06/18,00:50,0.991,1.577,1.044,1.873,1.288,0.527,0.967,0.895,���쐼,0.6,��
2017/06/18,01:00,0.989,1.577,1.044,1.871,1.289,0.527,0.966,0.896,-,CALM,��
2017/06/18,01:10,0.988,1.577,1.043,1.874,1.287,0.528,0.967,0.895,-,CALM,��
2017/06/18,01:20,0.988,1.578,1.044,1.873,1.286,0.526,0.967,0.895,�k�k��,0.6,��
2017/06/18,01:30,0.988,1.580,1.043,1.872,1.288,0.525,0.967,0.895,�k,1.1,��
2017/06/18,01:40,0.987,1.577,1.042,1.870,1.287,0.526,0.964,0.894,�k�k��,1.1,��
2017/06/18,01:50,0.988,1.578,1.044,1.875,1.286,0.527,0.967,0.895,�k�k��,1.4,��
2017/06/18,02:00,0.988,1.578,1.045,1.870,1.287,0.529,0.968,0.896,�k�k��,1.9,��
2017/06/18,02:10,0.989,1.579,1.042,1.874,1.288,0.527,0.968,0.896,�k,2.6,��
2017/06/18,02:20,0.989,1.579,1.041,1.874,1.288,0.528,0.967,0.896,�k��,3.4,��
2017/06/18,02:30,0.990,1.576,1.042,1.872,1.288,0.526,0.967,0.894,�k�k��,4.1,��
2017/06/18,02:40,0.989,1.576,1.043,1.873,1.286,0.526,0.969,0.895,�k�k��,3.3,��
2017/06/18,02:50,0.990,1.578,1.042,1.872,1.286,0.527,0.968,0.895,�k,2.0,��
2017/06/18,03:00,0.991,1.578,1.042,1.873,1.288,0.527,0.967,0.896,�k,2.3,��
2017/06/18,03:10,0.988,1.576,1.041,1.874,1.288,0.525,0.966,0.896,�k�k��,2.6,��
2017/06/18,03:20,0.988,1.582,1.042,1.875,1.290,0.526,0.967,0.897,�k�k��,2.9,��
2017/06/18,03:30,0.988,1.579,1.043,1.873,1.289,0.526,0.968,0.896,�k,2.6,��
2017/06/18,03:40,0.989,1.577,1.042,1.872,1.289,0.526,0.967,0.895,�k�k��,2.3,��
2017/06/18,03:50,0.991,1.579,1.044,1.875,1.287,0.525,0.966,0.895,�k,1.7,��
2017/06/18,04:00,0.989,1.577,1.043,1.874,1.289,0.526,0.966,0.896,�k�k��,1.9,��
2017/06/18,04:10,0.988,1.579,1.043,1.873,1.287,0.527,0.967,0.896,�k�k��,2.0,��
2017/06/18,04:20,0.987,1.577,1.045,1.873,1.287,0.524,0.966,0.894,�k�k��,2.3,��
2017/06/18,04:30,0.989,1.580,1.042,1.873,1.289,0.527,0.967,0.895,�k�k��,2.6,��
2017/06/18,04:40,0.988,1.578,1.045,1.872,1.288,0.527,0.966,0.895,�k�k��,3.1,��
2017/06/18,04:50,0.990,1.579,1.043,1.874,1.291,0.528,0.968,0.896,�k�k��,2.9,��
2017/06/18,05:00,0.988,1.580,1.043,1.874,1.290,0.526,0.967,0.894,�k�k��,3.0,��
2017/06/18,05:10,0.989,1.579,1.044,1.873,1.286,0.526,0.966,0.897,�k�k��,3.2,��
2017/06/18,05:20,0.987,1.579,1.043,1.873,1.288,0.526,0.965,0.895,�k�k��,2.6,��
2017/06/18,05:30,0.989,1.580,1.045,1.875,1.290,0.527,0.965,0.895,�k�k��,2.3,��
2017/06/18,05:40,0.990,1.580,1.042,1.874,1.287,0.527,0.964,0.897,�k��,2.2,��
2017/06/18,05:50,0.990,1.580,1.045,1.873,1.291,0.525,0.967,0.897,�k��,2.8,��
2017/06/18,06:00,0.990,1.581,1.045,1.876,1.290,0.527,0.966,0.896,�k��,2.8,��
2017/06/18,06:10,0.990,1.581,1.044,1.875,1.291,0.526,0.967,0.895,�k��,2.6,��
2017/06/18,06:20,0.991,1.581,1.044,1.877,1.287,0.527,0.965,0.898,�k��,2.8,��
2017/06/18,06:30,0.992,1.580,1.046,1.875,1.290,0.527,0.966,0.895,�k��,2.3,��
2017/06/18,06:40,0.991,1.581,1.044,1.876,1.287,0.526,0.967,0.898,�k�k��,2.0,��
2017/06/18,06:50,0.993,1.581,1.046,1.877,1.291,0.528,0.965,0.898,�k,1.7,��
2017/06/18,07:00,0.991,1.582,1.045,1.875,1.289,0.526,0.967,0.898,�k�k��,2.2,��
2017/06/18,07:10,0.991,1.581,1.046,1.876,1.289,0.526,0.967,0.895,�k�k��,2.0,��
2017/06/18,07:20,0.991,1.584,1.047,1.876,1.291,0.526,0.966,0.896,�k,2.0,��
2017/06/18,07:30,0.991,1.583,1.049,1.877,1.290,0.527,0.965,0.896,�k,2.0,��
2017/06/18,07:40,0.993,1.582,1.046,1.878,1.289,0.526,0.967,0.897,�k�k��,2.3,��
2017/06/18,07:50,0.987,1.580,1.046,1.876,1.289,0.525,0.967,0.897,�k�k��,2.2,��
2017/06/18,08:00,0.989,1.580,1.045,1.875,1.287,0.527,0.967,0.894,�k�k��,1.9,��
2017/06/18,08:10,0.988,1.584,1.048,1.875,1.288,0.524,0.966,0.896,�k�k��,2.0,��
2017/06/18,08:20,0.990,1.579,1.046,1.877,1.287,0.524,0.967,0.892,�k�k��,1.7,��
2017/06/18,08:30,0.986,1.577,1.046,1.877,1.288,0.523,0.967,0.895,�k,2.2,��
2017/06/18,08:40,0.990,1.579,1.046,1.875,1.287,0.527,0.966,0.896,�k�k��,1.7,��
2017/06/18,08:50,0.990,1.579,1.047,1.878,1.288,0.523,0.966,0.897,�k�k��,1.2,��
2017/06/18,09:00,0.989,1.579,1.048,1.876,1.289,0.524,0.966,0.895,�k��,1.5,��
2017/06/18,09:10,0.990,1.578,1.046,1.878,1.288,0.524,0.968,0.897,�k�k��,2.3,��
2017/06/18,09:20,0.988,1.576,1.045,1.877,1.290,0.526,0.968,0.895,�k�k��,2.8,��
2017/06/18,09:30,0.989,1.579,1.045,1.877,1.289,0.525,0.966,0.895,�k�k��,3.5,��
2017/06/18,09:40,0.988,1.579,1.047,1.877,1.290,0.525,0.968,0.894,�k,3.8,��
2017/06/18,09:50,0.991,1.582,1.044,1.877,1.289,0.526,0.969,0.894,�k�k��,3.6,��
2017/06/18,10:00,0.990,1.580,1.046,1.877,1.289,0.524,0.968,0.896,�k�k��,3.5,��
2017/06/18,10:10,0.990,1.582,1.044,1.878,1.287,0.525,0.967,0.893,�k,3.3,��
2017/06/18,10:20,0.990,1.583,1.046,1.882,1.290,0.524,0.968,0.897,�k,4.1,��
2017/06/18,10:30,0.991,1.581,1.044,1.878,1.291,0.524,0.966,0.895,�k,3.9,��
2017/06/18,10:40,0.991,1.577,1.044,1.877,1.287,0.525,0.967,0.895,�k�k��,4.8,��
2017/06/18,10:50,0.991,1.579,1.043,1.877,1.292,0.524,0.967,0.894,�k�k��,5.5,��
2017/06/18,11:00,0.992,1.580,1.043,1.878,1.291,0.524,0.967,0.893,�k�k��,5.3,��
2017/06/18,11:10,0.990,1.580,1.045,1.878,1.288,0.524,0.969,0.892,�k�k��,5.6,��
2017/06/18,11:20,0.989,1.581,1.046,1.877,1.290,0.524,0.969,0.894,�k�k��,5.8,��
2017/06/18,11:30,0.993,1.583,1.045,1.882,1.290,0.524,0.967,0.895,�k�k��,5.2,��
2017/06/18,11:40,0.993,1.581,1.046,1.880,1.289,0.525,0.967,0.894,�k�k��,4.3,��
2017/06/18,11:50,0.991,1.583,1.047,1.877,1.290,0.526,0.968,0.894,�k�k��,4.4,��
2017/06/18,12:00,0.992,1.583,1.044,1.881,1.290,0.524,0.967,0.893,�k�k��,3.9,��
2017/06/18,12:10,0.991,1.580,1.045,1.880,1.288,0.526,0.966,0.894,�k,4.7,��
2017/06/18,12:20,0.992,1.580,1.045,1.877,1.290,0.525,0.968,0.894,�k�k��,3.4,��
2017/06/18,12:30,0.991,1.581,1.044,1.878,1.291,0.525,0.968,0.895,�k,3.1,��
2017/06/18,12:40,0.992,1.581,1.046,1.879,1.291,0.525,0.967,0.894,�k,3.8,��
2017/06/18,12:50,0.990,1.580,1.045,1.880,1.292,0.523,0.967,0.896,�k,4.3,��
2017/06/18,13:00,0.992,1.583,1.046,1.882,1.294,0.525,0.968,0.896,�k,3.6,�L
2017/06/18,13:10,0.991,1.582,1.046,1.882,1.294,0.524,0.969,0.895,�k�k��,3.0,��
2017/06/18,13:20,0.992,1.582,1.046,1.878,1.291,0.526,0.969,0.894,�k,3.3,��
2017/06/18,13:30,0.993,1.585,1.045,1.877,1.292,0.525,0.968,0.896,�k,3.4,��
2017/06/18,13:40,0.995,1.584,1.046,1.880,1.290,0.525,0.969,0.895,�k,2.5,��
2017/06/18,13:50,0.993,1.582,1.046,1.878,1.292,0.523,0.969,0.895,�k,3.3,��
2017/06/18,14:00,0.991,1.584,1.048,1.882,1.292,0.525,0.969,0.894,�k,3.6,��
2017/06/18,14:10,0.995,1.585,1.049,1.881,1.293,0.526,0.969,0.894,�k,4.3,��
2017/06/18,14:20,0.993,1.585,1.047,1.881,1.292,0.524,0.970,0.897,�k,4.5,�L
2017/06/18,14:30,0.994,1.582,1.049,1.882,1.291,0.525,0.971,0.896,�k,4.5,��
2017/06/18,14:40,0.993,1.587,1.048,1.881,1.292,0.525,0.970,0.897,�k,4.3,��
2017/06/18,14:50,0.990,1.583,1.050,1.883,1.292,0.524,0.969,0.897,�k,4.2,�L
2017/06/18,15:00,0.992,1.583,1.048,1.882,1.293,0.526,0.970,0.894,�k,4.6,�L
2017/06/18,15:10,0.991,1.583,1.047,1.883,1.291,0.525,0.970,0.896,�k,4.9,�L
2017/06/18,15:20,0.992,1.585,1.046,1.877,1.290,0.527,0.967,0.895,�k,4.5,�L
2017/06/18,15:30,0.993,1.583,1.050,1.881,1.292,0.526,0.967,0.896,�k,4.1,�L
2017/06/18,15:40,0.993,1.585,1.050,1.880,1.294,0.527,0.968,0.896,�k,4.9,��
2017/06/18,15:50,0.993,1.586,1.050,1.882,1.292,0.525,0.968,0.898,�k,4.5,�L
2017/06/18,16:00,0.993,1.588,1.050,1.879,1.295,0.527,0.968,0.897,�k,4.6,��
2017/06/18,16:10,0.993,1.587,1.049,1.882,1.295,0.527,0.967,0.898,�k,4.6,��
2017/06/18,16:20,0.996,1.588,1.050,1.883,1.296,0.525,0.968,0.898,�k�k��,3.8,��
2017/06/18,16:30,0.994,1.586,1.050,1.881,1.296,0.524,0.968,0.899,�k,3.7,��
2017/06/18,16:40,0.996,1.590,1.049,1.881,1.295,0.526,0.966,0.897,�k�k��,3.3,��
2017/06/18,16:50,0.995,1.587,1.052,1.879,1.297,0.528,0.968,0.896,�k,3.9,��
2017/06/18,17:00,0.994,1.588,1.048,1.882,1.297,0.527,0.969,0.898,�k�k��,3.6,��
2017/06/18,17:10,0.993,1.589,1.049,1.885,1.297,0.528,0.968,0.896,�k�k��,3.6,��
2017/06/18,17:20,0.996,1.585,1.049,1.880,1.295,0.526,0.969,0.894,�k,3.8,��
2017/06/18,17:30,0.994,1.589,1.051,1.882,1.294,0.527,0.967,0.896,�k,4.0,��
2017/06/18,17:40,0.996,1.588,1.050,1.884,1.294,0.526,0.968,0.897,�k,3.6,��
2017/06/18,17:50,0.997,1.587,1.050,1.883,1.296,0.526,0.967,0.895,�k,4.1,��
2017/06/18,18:00,0.995,1.587,1.047,1.880,1.295,0.527,0.968,0.897,�k,4.3,��
2017/06/18,18:10,0.993,1.589,1.051,1.881,1.292,0.526,0.966,0.897,�k,5.1,�L
2017/06/18,18:20,0.993,1.590,1.052,1.882,1.293,0.527,0.967,0.898,�k,4.9,��
2017/06/18,18:30,0.995,1.586,1.049,1.881,1.296,0.526,0.969,0.898,�k,4.9,��
2017/06/18,18:40,0.995,1.587,1.050,1.884,1.296,0.527,0.968,0.897,�k,4.8,��
2017/06/18,18:50,0.994,1.586,1.050,1.880,1.295,0.527,0.967,0.897,�k,5.5,��
2017/06/18,19:00,0.994,1.588,1.049,1.883,1.296,0.526,0.968,0.897,�k,5.6,��
2017/06/18,19:10,0.996,1.587,1.050,1.879,1.293,0.526,0.966,0.897,�k,5.8,��
2017/06/18,19:20,0.997,1.588,1.051,1.879,1.291,0.527,0.967,0.897,�k,5.3,��
2017/06/18,19:30,0.995,1.587,1.048,1.883,1.296,0.525,0.969,0.898,�k,5.5,��
2017/06/18,19:40,0.995,1.586,1.049,1.881,1.294,0.528,0.967,0.898,�k,5.2,��
2017/06/18,19:50,0.994,1.589,1.050,1.883,1.295,0.526,0.968,0.898,�k,5.3,��
2017/06/18,20:00,0.994,1.586,1.050,1.877,1.293,0.529,0.967,0.899,�k,5.4,��
2017/06/18,20:10,0.997,1.586,1.049,1.882,1.296,0.527,0.967,0.900,�k,4.8,��
2017/06/18,20:20,0.997,1.587,1.050,1.879,1.295,0.529,0.968,0.899,�k,5.6,��
2017/06/18,20:30,0.997,1.591,1.051,1.883,1.294,0.526,0.968,0.898,�k,4.8,��
2017/06/18,20:40,0.995,1.585,1.050,1.881,1.294,0.526,0.966,0.899,�k�k��,5.3,��
2017/06/18,20:50,0.996,1.589,1.048,1.882,1.293,0.529,0.970,0.899,�k,5.2,��
2017/06/18,21:00,0.995,1.589,1.050,1.881,1.294,0.528,0.968,0.899,�k,4.6,��
2017/06/18,21:10,0.995,1.589,1.048,1.878,1.298,0.529,0.970,0.898,�k,5.1,��
2017/06/18,21:20,0.995,1.587,1.049,1.881,1.294,0.526,0.968,0.898,�k,4.8,��
2017/06/18,21:30,0.996,1.587,1.052,1.884,1.295,0.527,0.967,0.900,�k,5.0,��
2017/06/18,21:40,0.995,1.587,1.048,1.883,1.294,0.527,0.970,0.899,�k,5.2,��
2017/06/18,21:50,0.996,1.588,1.051,1.882,1.296,0.528,0.970,0.897,�k,5.8,��
2017/06/18,22:00,0.996,1.588,1.049,1.881,1.293,0.527,0.969,0.900,�k,4.9,��
2017/06/18,22:10,0.994,1.589,1.051,1.881,1.295,0.527,0.969,0.898,�k�k��,4.8,��
2017/06/18,22:20,0.995,1.585,1.050,1.882,1.296,0.525,0.967,0.897,�k,4.7,��
2017/06/18,22:30,0.996,1.586,1.050,1.882,1.294,0.526,0.968,0.896,�k,5.2,��
2017/06/18,22:40,0.995,1.586,1.051,1.883,1.292,0.526,0.969,0.897,�k,4.8,��
2017/06/18,22:50,0.996,1.586,1.047,1.881,1.293,0.528,0.967,0.897,�k,4.2,��
2017/06/18,23:00,0.996,1.590,1.049,1.883,1.294,0.526,0.969,0.899,�k,5.1,��
2017/06/18,23:10,0.994,1.588,1.049,1.879,1.295,0.526,0.968,0.899,�k�k��,5.8,��
2017/06/18,23:20,0.995,1.587,1.050,1.879,1.295,0.526,0.968,0.900,�k,5.8,��
2017/06/18,23:30,0.996,1.588,1.049,1.881,1.294,0.527,0.968,0.899,�k�k��,6.4,��
2017/06/18,23:40,0.994,1.587,1.050,1.884,1.297,0.527,0.968,0.899,�k�k��,6.4,��
2017/06/18,23:50,0.995,1.588,1.049,1.884,1.296,0.526,0.967,0.898,�k�k��,6.4,��
